Starlink 2455

operational
NORAD ID: 48117 Int'l Des: 2021-027 Owner: SPXS Country: US Constellation: starlink
LEOCIRCULARSTARLINK_TYPE

About Starlink 2455

Description loading...

Live Position

Loading 3D Globe...

Upcoming Passes

Altitude History

Altitude vs Time

uPlot chart will show altitude changes over time

Two-Line Element Set

1 48117U 21027AB 26067.00002314 .01017645 00000-0 63465-1 0 9993
2 48117 53.0545 159.1944 0001444 89.3795 277.4737 15.06340736 5593
Epoch: Mar 8, 2026 • Age: 8 hours

Current Status

Altitude 545.6 km
Velocity 7.59 km/s
Sub-Earth Point 21.44°N, 112.04°W
Launch Date Apr 7, 2021
Age 4.9 years
Type internet

Technical Details

Classification Payload
Mass 260.00 kg
Dry Mass 248.00 kg
Total Mass 260.00 kg
Length 0.20 m
Diameter 2.80 m
Span 9.00 m
Shape Box + pan
Manufacturer SPXS
Bus Type Starlink
Phase Status In Orbit
Owner/State SPXS/US

Large Constellations

Loading constellations...